Previsão horária em Juquiá

Hoje, 22 Junho, Terça-feira

Tempo Temperatura Precipitação Vento Pressão Humidade
00:00 +16°C° 0.2 mm 0 m/s 764 mmHg 99%
01:00 +16°C° 0.1 mm 0 m/s 764 mmHg 99%
02:00 +15°C° 0.1 mm 0 m/s 763 mmHg 99%
03:00 +15°C° 0.1 mm 0 m/s 763 mmHg 99%
04:00 +15°C° 0.1 mm 0 m/s 763 mmHg 99%
05:00 +15°C° 0.1 mm 0 m/s 763 mmHg 99%
06:00 +16°C° 0.1 mm 0 m/s 764 mmHg 99%
07:00 +16°C° 0 mm 0 m/s 764 mmHg 98%
08:00 +16°C° 0 mm 0 m/s 764 mmHg 97%
09:00 +17°C° 0 mm 0 m/s 765 mmHg 95%
10:00 +18°C° 0 mm 0 m/s 765 mmHg 87%
11:00 +20°C° 0 mm 0 m/s 765 mmHg 79%
12:00 +22°C° 0 mm 0 m/s 764 mmHg 70%
13:00 +24°C° 0 mm 1 m/s 764 mmHg 70%
14:00 +24°C° 0 mm 1 m/s 763 mmHg 71%
15:00 +23°C° 0 mm 1 m/s 763 mmHg 71%
16:00 +22°C° 0 mm 1 m/s 764 mmHg 78%
17:00 +21°C° 0 mm 1 m/s 764 mmHg 85%
18:00 +19°C° 0 mm 1 m/s 765 mmHg 92%
19:00 +19°C° 0 mm 1 m/s 765 mmHg 92%
20:00 +17°C° 0 mm 0 m/s 765 mmHg 92%
21:00 +17°C° 0 mm 0 m/s 766 mmHg 92%
22:00 +17°C° 0 mm 0 m/s 766 mmHg 92%
23:00 +17°C° 0 mm 0 m/s 766 mmHg 93%

Amanhã, 23 Junho, Quarta-feira

Tempo Temperatura Precipitação Vento Pressão Humidade
00:00 +17°C° 0 mm 0 m/s 766 mmHg 93%
01:00 +17°C° 0 mm 0 m/s 766 mmHg 94%
02:00 +17°C° 0 mm 0 m/s 766 mmHg 95%
03:00 +17°C° 0 mm 0 m/s 766 mmHg 95%
04:00 +16°C° 0 mm 0 m/s 765 mmHg 96%
05:00 +16°C° 0 mm 0 m/s 765 mmHg 96%
06:00 +16°C° 0 mm 0 m/s 765 mmHg 97%
07:00 +17°C° 0 mm 0 m/s 766 mmHg 96%
08:00 +17°C° 0 mm 0 m/s 766 mmHg 96%
09:00 +17°C° 0 mm 0 m/s 766 mmHg 95%
10:00 +18°C° 0.1 mm 0 m/s 766 mmHg 91%
11:00 +19°C° 0.1 mm 0 m/s 766 mmHg 87%
12:00 +20°C° 0.1 mm 0 m/s 766 mmHg 84%
13:00 +22°C° 0.1 mm 1 m/s 765 mmHg 83%
14:00 +22°C° 0.1 mm 1 m/s 765 mmHg 82%
15:00 +22°C° 0.1 mm 1 m/s 764 mmHg 81%
16:00 +21°C° 0.1 mm 1 m/s 764 mmHg 87%
17:00 +20°C° 0.1 mm 1 m/s 764 mmHg 92%
18:00 +19°C° 0.1 mm 1 m/s 765 mmHg 98%
19:00 +17°C° 0 mm 0 m/s 765 mmHg 98%
20:00 +17°C° 0 mm 0 m/s 765 mmHg 98%
21:00 +16°C° 0 mm 0 m/s 765 mmHg 98%
22:00 +16°C° 0 mm 0 m/s 765 mmHg 98%
23:00 +16°C° 0 mm 0 m/s 765 mmHg 98%

Depois de amanhã, 24 Junho, Quinta-feira

Tempo Temperatura Precipitação Vento Pressão Humidade
00:00 +16°C° 0 mm 0 m/s 764 mmHg 98%
01:00 +16°C° 0 mm 0 m/s 764 mmHg 98%
02:00 +16°C° 0 mm 0 m/s 763 mmHg 98%
03:00 +16°C° 0 mm 0 m/s 763 mmHg 99%
04:00 +16°C° 0 mm 0 m/s 763 mmHg 98%
05:00 +16°C° 0 mm 0 m/s 762 mmHg 98%
06:00 +16°C° 0 mm 0 m/s 762 mmHg 98%
07:00 +17°C° 0 mm 0 m/s 762 mmHg 95%
08:00 +17°C° 0 mm 0 m/s 762 mmHg 92%
09:00 +18°C° 0 mm 0 m/s 762 mmHg 89%
10:00 +20°C° 0 mm 0 m/s 762 mmHg 80%
11:00 +22°C° 0 mm 0 m/s 761 mmHg 70%
12:00 +24°C° 0 mm 0 m/s 761 mmHg 61%
13:00 +25°C° 0 mm 0 m/s 760 mmHg 60%
14:00 +25°C° 0 mm 0 m/s 759 mmHg 59%
15:00 +26°C° 0 mm 0 m/s 758 mmHg 57%
16:00 +26°C° 0 mm 1 m/s 758 mmHg 68%
17:00 +24°C° 0 mm 1 m/s 758 mmHg 79%
18:00 +21°C° 0 mm 1 m/s 758 mmHg 90%
19:00 +21°C° 0 mm 1 m/s 758 mmHg 90%
20:00 +19°C° 0 mm 0 m/s 758 mmHg 89%
21:00 +18°C° 0 mm 0 m/s 758 mmHg 89%
22:00 +18°C° 0 mm 0 m/s 758 mmHg 88%
23:00 +18°C° 0 mm 0 m/s 758 mmHg 88%

25 Junho, Sexta-feira

Tempo Temperatura Precipitação Vento Pressão Humidade
00:00 +18°C° 0 mm 0 m/s 758 mmHg 87%
01:00 +20°C° 0 mm 1 m/s 757 mmHg 85%
02:00 +20°C° 0 mm 1 m/s 757 mmHg 83%
03:00 +20°C° 0 mm 1 m/s 757 mmHg 82%
04:00 +20°C° 0 mm 1 m/s 757 mmHg 80%
05:00 +20°C° 0 mm 1 m/s 757 mmHg 79%
06:00 +20°C° 0 mm 1 m/s 757 mmHg 77%
07:00 +22°C° 0 mm 1 m/s 758 mmHg 74%
08:00 +23°C° 0 mm 1 m/s 758 mmHg 70%
09:00 +24°C° 0 mm 1 m/s 758 mmHg 67%
10:00 +26°C° 0 mm 1 m/s 758 mmHg 60%
11:00 +29°C° 0 mm 1 m/s 758 mmHg 52%
12:00 +31°C° 0 mm 2 m/s 758 mmHg 45%
13:00 +31°C° 0 mm 1 m/s 758 mmHg 46%
14:00 +31°C° 0 mm 1 m/s 757 mmHg 48%
15:00 +32°C° 0 mm 1 m/s 757 mmHg 50%
16:00 +28°C° 0 mm 1 m/s 757 mmHg 64%
17:00 +25°C° 0 mm 1 m/s 758 mmHg 78%
18:00 +22°C° 0 mm 1 m/s 759 mmHg 92%
19:00 +22°C° 0 mm 1 m/s 759 mmHg 93%
20:00 +19°C° 0 mm 0 m/s 760 mmHg 95%
21:00 +19°C° 0 mm 0 m/s 761 mmHg 96%
22:00 +18°C° 0 mm 0 m/s 761 mmHg 97%
23:00 +18°C° 0 mm 0 m/s 761 mmHg 98%

26 Junho, Sábado

Tempo Temperatura Precipitação Vento Pressão Humidade
00:00 +17°C° 0 mm 0 m/s 761 mmHg 98%
01:00 +17°C° 0 mm 0 m/s 761 mmHg 98%
02:00 +17°C° 0 mm 0 m/s 761 mmHg 98%
03:00 +17°C° 0 mm 0 m/s 761 mmHg 98%
04:00 +17°C° 0 mm 0 m/s 761 mmHg 98%
05:00 +17°C° 0 mm 0 m/s 761 mmHg 97%
06:00 +17°C° 0 mm 0 m/s 761 mmHg 96%
07:00 +18°C° 0 mm 0 m/s 762 mmHg 93%
08:00 +19°C° 0 mm 0 m/s 762 mmHg 90%
09:00 +20°C° 0 mm 0 m/s 762 mmHg 86%
10:00 +21°C° 0 mm 0 m/s 762 mmHg 78%
11:00 +23°C° 0 mm 0 m/s 761 mmHg 70%
12:00 +25°C° 0 mm 0 m/s 761 mmHg 62%
13:00 +26°C° 0 mm 0 m/s 760 mmHg 62%
14:00 +26°C° 0 mm 0 m/s 759 mmHg 61%
15:00 +27°C° 0 mm 0 m/s 758 mmHg 60%
16:00 +25°C° 0 mm 0 m/s 758 mmHg 71%
17:00 +23°C° 0 mm 0 m/s 758 mmHg 81%
18:00 +21°C° 0 mm 0 m/s 759 mmHg 92%
19:00 +20°C° 0 mm 0 m/s 759 mmHg 92%
20:00 +20°C° 0 mm 0 m/s 759 mmHg 92%
21:00 +19°C° 0 mm 0 m/s 759 mmHg 93%
22:00 +19°C° 0 mm 0 m/s 759 mmHg 92%
23:00 +19°C° 0 mm 0 m/s 759 mmHg 91%

27 Junho, Domingo

Tempo Temperatura Precipitação Vento Pressão Humidade
00:00 +19°C° 0 mm 0 m/s 759 mmHg 90%
01:00 +19°C° 0 mm 0 m/s 759 mmHg 89%
02:00 +19°C° 0 mm 0 m/s 758 mmHg 88%
03:00 +19°C° 0 mm 0 m/s 758 mmHg 86%
04:00 +18°C° 0 mm 0 m/s 758 mmHg 86%
05:00 +20°C° 0 mm 1 m/s 758 mmHg 85%
06:00 +20°C° 0 mm 1 m/s 758 mmHg 84%
07:00 +22°C° 0 mm 1 m/s 758 mmHg 78%
08:00 +24°C° 0 mm 1 m/s 758 mmHg 71%
09:00 +25°C° 0 mm 1 m/s 759 mmHg 64%
10:00 +28°C° 0 mm 1 m/s 758 mmHg 55%
11:00 +30°C° 0 mm 2 m/s 758 mmHg 46%
12:00 +34°C° 0 mm 2 m/s 757 mmHg 38%
13:00 +34°C° 0 mm 2 m/s 757 mmHg 38%
14:00 +34°C° 0 mm 1 m/s 756 mmHg 38%
15:00 +34°C° 0 mm 1 m/s 755 mmHg 38%
16:00 +31°C° 0 mm 1 m/s 756 mmHg 52%
17:00 +27°C° 0 mm 1 m/s 756 mmHg 65%
18:00 +24°C° 0 mm 1 m/s 757 mmHg 79%
19:00 +23°C° 0 mm 1 m/s 757 mmHg 83%
20:00 +20°C° 0 mm 0 m/s 758 mmHg 87%
21:00 +19°C° 0 mm 0 m/s 758 mmHg 91%
22:00 +19°C° 0 mm 0 m/s 759 mmHg 93%
23:00 +19°C° 0 mm 0 m/s 759 mmHg 94%
Mostrar mais

Necessitamos do seu Consentimento

A Meteoprog e os seus Fornecedores de Serviços podem armazenar e aceder a dados pessoais como cookies, identificadores do dispositivo ou outras tecnologias semelhantes existentes no seu dispositivo e processar estes dados para personalizar conteúdos e anúncios, assim como funcionalidades nas redes sociais e análise de tráfego.

  • Armazenar e/ou aceder a informações no seu dispositivo

    Os cookies, identificadores do dispositivo ou outras informações podem ser armazenados ou acedidos no seu dispositivo, para os fins acima indicados.

  • Anúncios e conteúdos personalizados, medição de anúncios e conteúdos, dados sobre o público-alvo e desenvolvimento de produtos

    Os anúncios e os conteúdos podem ser personalizados com base num perfil. Podem ser adicionados dados adicionais para uma maior personalização dos anúncios e dos conteúdos. A eficácia dos anúncios e dos conteúdos pode ser medida. Podem ser obtidas informações sobre o público que visualizou os anúncios e os conteúdos. Estes dados podem ser usados para desenvolver ou melhorar sistemas, softwares ou a experiência do utilizador.

Ao clicar em "Eu concordo”, permitirá o uso de cookies, identificadores do dispositivo e web beacons mencionados ou outras tecnologias semelhantes. As configurações do navegador do seu dispositivo podem ser alteradas.

Para certos fins, podem ser invocados interesses legítimos ao invés de consentimento. Pode ler mais informação sobre este assunto na nossa Política de Privacidade e Cookies.